Location: New Plymouth
(39.0670°S, 174.0830°E)
Time: 17:47:07
(UTC+13:00)

ISS - Pass Details

Date: 31 January 2019
Orbit: 403 x 411 km, 51.6° (Epoch: 23 February)

Event Time Altitude Azimuth Distance (km) Brightness Sun altitude
Exits shadow 04:34:59 42° 40° (NE) 601 -3.1 -19.7°
Maximum altitude 04:35:03 43° 44° (NE) 601 -3.1 -19.7°
Drops below altitude 10° 04:38:15 10° 116° (ESE) 1,496 0.1 -19.2°
Sets 04:40:25 0° 123° (ESE) 2,363 1.6 -18.9°
